Weather History for KLBL - December, 2012

Change the Weather History Date:

Tuesday, December 11, 2012

  Actual Average Record
Temperature  
Mean Temperature 30 °F -  
Max Temperature 44 °F 52 °F 77 °F (1939)
Min Temperature 15 °F 23 °F 4 °F (1972)
Degree Days  
Heating Degree Days 36    
Moisture  
Dew Point 9 °F    
Average Humidity 45    
Maximum Humidity 63    
Minimum Humidity 31    
Precipitation  
Precipitation 0.00 in - - ()
Sea Level Pressure  
Sea Level Pressure 30.04 in    
Wind  
Wind Speed 7 mph (WSW)    
Max Wind Speed 14 mph    
Max Gust Speed -    
Visibility 10 miles    
Events      
Averages and records for this station are not official NWS values.
T = Trace of Precipitation, MM = Missing Value Source: NWS Daily Summary

Daily Weather History Graph

Daily Weather History Graph

Search for Another Location

Airport or City:

Trip Planner

Search our weather history database for the weather conditions in past years. The results will help you decide how hot, cold, wet, or windy it might be!

Date:

Astronomy

Dec. 11, 2012 Rise Set
Actual Time 7:47 AM CST 5:27 PM CST
Civil Twilight 7:18 AM CST 5:56 PM CST
Nautical Twilight 6:46 AM CST 6:28 PM CST
Astronomical Twilight 6:14 AM CST 7:00 PM CST
Moon 5:45 AM CST (12/11) 4:07 PM CST (12/11)
Length of Visible Light 10h 37m
Length of Day
9h 39m
Waning Crescent, 4% of the Moon is Illuminated
Dec 11
Waning Crescent
Dec 13
New
Dec 19
First Quarter
Dec 28
Full
Jan 4
Last Quarter

Hourly Weather History & Observations

Time (CST) Temp. Windchill Dew Point Humidity Pressure Visibility Wind Dir Wind Speed Gust Speed Precip Events Conditions
12:15 AM 19.4 °F 8.6 °F 1.4 °F 46% 29.96 in 10.0 mi SSW 9.2 mph - N/A   Clear
12:35 AM 19.4 °F 10.4 °F 1.4 °F 46% 29.97 in 10.0 mi SW 6.9 mph - N/A   Clear
12:55 AM 19.4 °F 10.4 °F 1.4 °F 46% 29.96 in 10.0 mi WSW 6.9 mph - N/A   Partly Cloudy
1:15 AM 17.6 °F 9.3 °F 1.4 °F 49% 29.96 in 10.0 mi WSW 5.8 mph - N/A   Clear
1:35 AM 19.4 °F 11.5 °F 3.2 °F 49% 29.96 in 10.0 mi WSW 5.8 mph - N/A   Clear
1:55 AM 17.6 °F 9.3 °F 3.2 °F 53% 29.97 in 10.0 mi West 5.8 mph - N/A   Mostly Cloudy
2:15 AM 17.6 °F 9.3 °F 1.4 °F 49% 29.97 in 10.0 mi SW 5.8 mph - N/A   Overcast
2:35 AM 19.4 °F 14.3 °F 6.8 °F 58% 29.98 in 10.0 mi West 3.5 mph - N/A   Overcast
2:55 AM 21.2 °F 16.4 °F 3.2 °F 46% 29.99 in 10.0 mi West 3.5 mph - N/A   Overcast
3:15 AM 19.4 °F - 3.2 °F 49% 30.00 in 10.0 mi Calm Calm - N/A   Mostly Cloudy
3:35 AM 21.2 °F 16.4 °F 3.2 °F 46% 30.00 in 10.0 mi WNW 3.5 mph - N/A   Overcast
3:55 AM 21.2 °F - 6.8 °F 54% 30.00 in 10.0 mi Calm Calm - N/A   Overcast
4:15 AM 23.0 °F - 5.0 °F 46% 30.00 in 10.0 mi Calm Calm - N/A   Mostly Cloudy
4:35 AM 21.2 °F 16.4 °F 1.4 °F 42% 30.00 in 10.0 mi SSW 3.5 mph - N/A   Partly Cloudy
4:55 AM 19.4 °F 12.8 °F 1.4 °F 46% 30.00 in 10.0 mi NNW 4.6 mph - N/A   Mostly Cloudy
5:15 AM 21.2 °F 13.6 °F 5.0 °F 50% 30.00 in 10.0 mi NNW 5.8 mph - N/A   Mostly Cloudy
5:35 AM 19.4 °F 10.4 °F 1.4 °F 46% 30.01 in 10.0 mi NNW 6.9 mph - N/A   Partly Cloudy
5:55 AM 17.6 °F 8.2 °F 1.4 °F 49% 30.01 in 10.0 mi WNW 6.9 mph - N/A   Clear
6:15 AM 15.8 °F 5.1 °F -0.4 °F 49% 30.02 in 10.0 mi NNW 8.1 mph - N/A   Clear
6:35 AM 15.8 °F 4.2 °F 1.4 °F 53% 30.03 in 10.0 mi NW 9.2 mph - N/A   Clear
6:55 AM 17.6 °F 6.4 °F 5.0 °F 58% 30.04 in 10.0 mi NW 9.2 mph - N/A   Clear
7:15 AM 19.4 °F 10.4 °F 6.8 °F 58% 30.05 in 10.0 mi NW 6.9 mph - N/A   Clear
7:35 AM 17.6 °F 9.3 °F 5.0 °F 58% 30.06 in 10.0 mi NW 5.8 mph - N/A   Clear
8:15 AM 19.4 °F 7.9 °F 8.6 °F 63% 30.07 in 10.0 mi West 10.4 mph - N/A   Clear
8:35 AM 21.2 °F 10.1 °F 10.4 °F 63% 30.08 in 10.0 mi West 10.4 mph - N/A   Scattered Clouds
8:55 AM 24.8 °F 13.4 °F 10.4 °F 54% 30.08 in 10.0 mi WNW 12.7 mph - N/A   Partly Cloudy
9:15 AM 26.6 °F 16.2 °F 14.0 °F 59% 30.09 in 10.0 mi WNW 11.5 mph - N/A   Clear
9:35 AM 30.2 °F 22.6 °F 15.8 °F 55% 30.09 in 10.0 mi NNE 8.1 mph - N/A   Clear
9:55 AM 33.8 °F 27.7 °F 17.6 °F 52% 30.09 in 10.0 mi NNE 6.9 mph - N/A   Clear
10:15 AM 35.6 °F 29.2 °F 17.6 °F 48% 30.09 in 10.0 mi NE 8.1 mph - N/A   Clear
10:35 AM 35.6 °F 29.2 °F 17.6 °F 48% 30.10 in 10.0 mi NE 8.1 mph - N/A   Clear
10:55 AM 37.4 °F 31.4 °F 17.6 °F 45% 30.11 in 10.0 mi NNE 8.1 mph - N/A   Scattered Clouds
11:15 AM 37.4 °F 30.8 °F 17.6 °F 45% 30.11 in 10.0 mi North 9.2 mph - N/A   Partly Cloudy
11:35 AM 37.4 °F 32.1 °F 17.6 °F 45% 30.11 in 10.0 mi WNW 6.9 mph - N/A   Scattered Clouds
11:55 AM 39.2 °F 33.0 °F 17.6 °F 42% 30.11 in 10.0 mi NW 9.2 mph - N/A   Mostly Cloudy
12:15 PM 39.2 °F 35.9 °F 17.6 °F 42% 30.10 in 10.0 mi NE 4.6 mph - N/A   Mostly Cloudy
12:35 PM 39.2 °F - 15.8 °F 39% 30.09 in 10.0 mi Calm Calm - N/A   Partly Cloudy
12:55 PM 39.2 °F - 15.8 °F 39% 30.08 in 10.0 mi Calm Calm - N/A   Clear
1:15 PM 41.0 °F 39.0 °F 17.6 °F 39% 30.07 in 10.0 mi ENE 3.5 mph - N/A   Clear
1:35 PM 41.0 °F - 15.8 °F 36% 30.06 in 10.0 mi Calm Calm - N/A   Clear
1:55 PM 41.0 °F 39.0 °F 17.6 °F 39% 30.06 in 10.0 mi NE 3.5 mph - N/A   Clear
2:15 PM 42.8 °F 41.1 °F 15.8 °F 34% 30.05 in 10.0 mi NE 3.5 mph - N/A   Clear
2:35 PM 42.8 °F - 15.8 °F 34% 30.05 in 10.0 mi Calm Calm - N/A   Clear
2:55 PM 42.8 °F - 15.8 °F 34% 30.04 in 10.0 mi Calm Calm - N/A   Clear
3:15 PM 42.8 °F - 15.8 °F 34% 30.04 in 10.0 mi Calm Calm - N/A   Clear
3:35 PM 42.8 °F 41.1 °F 15.8 °F 34% 30.03 in 10.0 mi West 3.5 mph - N/A   Clear
3:55 PM 44.6 °F 42.2 °F 15.8 °F 31% 30.03 in 10.0 mi South 4.6 mph - N/A   Clear
4:15 PM 42.8 °F 38.0 °F 15.8 °F 34% 30.03 in 10.0 mi South 8.1 mph - N/A   Clear
4:35 PM 42.8 °F 38.0 °F 15.8 °F 34% 30.03 in 10.0 mi South 8.1 mph - N/A   Clear
4:55 PM 42.8 °F 40.1 °F 14.0 °F 31% 30.03 in 10.0 mi South 4.6 mph - N/A   Clear
5:15 PM 39.2 °F 35.0 °F 12.2 °F 33% 30.03 in 10.0 mi SSW 5.8 mph - N/A   Clear
5:35 PM 37.4 °F 32.8 °F 12.2 °F 36% 30.03 in 10.0 mi South 5.8 mph - N/A   Clear
5:55 PM 35.6 °F 30.7 °F 8.6 °F 33% 30.04 in 10.0 mi South 5.8 mph - N/A   Clear
6:15 PM 32.0 °F 25.6 °F 8.6 °F 38% 30.04 in 10.0 mi SSW 6.9 mph - N/A   Clear
6:35 PM 30.2 °F 22.6 °F 8.6 °F 40% 30.04 in 8.0 mi SSW 8.1 mph - N/A   Clear
6:55 PM 26.6 °F 17.5 °F 6.8 °F 43% 30.04 in 10.0 mi SSW 9.2 mph - N/A   Clear
7:15 PM 26.6 °F 17.5 °F 6.8 °F 43% 30.03 in 10.0 mi SSW 9.2 mph - N/A   Clear
7:35 PM 26.6 °F 15.7 °F 6.8 °F 43% 30.03 in 10.0 mi SSW 12.7 mph - N/A   Clear
7:55 PM 26.6 °F 16.8 °F 8.6 °F 47% 30.03 in 10.0 mi South 10.4 mph - N/A   Clear
8:15 PM 26.6 °F 16.2 °F 8.6 °F 47% 30.03 in 10.0 mi SSW 11.5 mph - N/A   Clear
8:35 PM 26.6 °F 16.8 °F 6.8 °F 43% 30.03 in 10.0 mi SSW 10.4 mph - N/A   Clear
8:55 PM 26.6 °F 16.2 °F 6.8 °F 43% 30.03 in 10.0 mi SSW 11.5 mph - N/A   Clear
9:15 PM 26.6 °F 16.2 °F 8.6 °F 47% 30.03 in 10.0 mi South 11.5 mph - N/A   Clear
9:35 PM 24.8 °F 14.0 °F 6.8 °F 46% 30.03 in 10.0 mi South 11.5 mph - N/A   Clear
9:55 PM 23.0 °F 12.4 °F 6.8 °F 50% 30.02 in 10.0 mi South 10.4 mph - N/A   Clear
10:15 PM 24.8 °F 14.0 °F 6.8 °F 46% 30.02 in 10.0 mi SSW 11.5 mph - N/A   Clear
10:35 PM 26.6 °F 16.8 °F 8.6 °F 47% 30.02 in 10.0 mi SSW 10.4 mph - N/A   Clear
10:55 PM 23.0 °F 12.4 °F 5.0 °F 46% 30.03 in 10.0 mi South 10.4 mph - N/A   Clear
11:15 PM 21.2 °F 9.5 °F 3.2 °F 46% 30.03 in 10.0 mi South 11.5 mph - N/A   Clear
11:35 PM 24.8 °F 13.4 °F 8.6 °F 50% 30.03 in 10.0 mi South 12.7 mph - N/A   Clear
11:55 PM 26.6 °F 15.2 °F 8.6 °F 47% 30.02 in 10.0 mi South 13.8 mph - N/A   Clear